User: anonymous   Login
Location: Ostrava
(49.8330°N, 18.2830°E)
Time: 00:31:27
(UTC+02:00)
Language:

Cosmos 1400 Rocket - Orbit

View from above orbital plane
View from above orbital plane
View from above satellite
View from above satellite

Ground track
Ground track

The orbit data is extracted from the following two-line orbital elements,

1 13403U 82079B   16269.17160936  .00000412  00000-0  26001-4 0  9994
2 13403  81.1699 212.8243 0035756  72.0984 288.4133 15.06319830856829
Epoch (UTC): 25 September 2016 04:07:07
Eccentricity: 0.0035756
inclination: 81.1699°
perigee height: 523 km
apogee height: 572 km
right ascension of ascending node: 212.8243°
argument of perigee: 72.0984°
revolutions per day: 15.06319830
mean anomaly at epoch: 288.4133°
orbit number at epoch: 85682

The dashed part of the orbit path shows where the satellite is in the earth's shadow,  

DLR